| time (UTC) | temp C | wind direction | speed KPH | gust KPH | rain 1hr cm | rain 24hr cm | rain mn cm | humidity % | barometer mb |
| 20260504202234 | 8 | 254 | 35.4 | 53.1 | 0.00 | 0.00 | 0.00 | 38 | 1010.6 |
| 20260504201228 | 8 | 253 | 33.8 | 59.5 | 0.00 | 0.00 | 0.00 | 35 | 1010.6 |
| 20260504200228 | 8 | 246 | 32.2 | 45.1 | 0.00 | 0.00 | 0.00 | 32 | 1010.6 |
| 20260504195228 | 8 | 249 | 30.6 | 46.7 | 0.00 | 0.00 | 0.00 | 32 | 1010.5 |
| 20260504194228 | 8 | 247 | 27.4 | 45.1 | 0.00 | 0.00 | 0.00 | 32 | 1010.6 |
| 20260504193228 | 8 | 242 | 29.0 | 45.1 | 0.00 | 0.00 | 0.00 | 32 | 1010.6 |
| 20260504192229 | 8 | 253 | 29.0 | 43.5 | 0.00 | 0.00 | 0.00 | 32 | 1010.7 |
| 20260504191228 | 8 | 247 | 29.0 | 41.8 | 0.00 | 0.00 | 0.00 | 31 | 1010.6 |
| 20260504190228 | 8 | 239 | 24.1 | 43.5 | 0.00 | 0.00 | 0.00 | 34 | 1010.7 |
| 20260504185228 | 8 | 255 | 27.4 | 43.5 | 0.00 | 0.00 | 0.00 | 37 | 1010.8 |
| 20260504184228 | 8 | 250 | 29.0 | 45.1 | 0.00 | 0.00 | 0.00 | 33 | 1010.7 |
| 20260504183228 | 7 | 252 | 32.2 | 46.7 | 0.00 | 0.00 | 0.00 | 34 | 1010.9 |
| 20260504182229 | 8 | 247 | 33.8 | 53.1 | 0.00 | 0.00 | 0.00 | 37 | 1011.0 |
| 20260504181228 | 7 | 246 | 30.6 | 45.1 | 0.00 | 0.00 | 0.00 | 37 | 1011.0 |
| 20260504180228 | 7 | 252 | 30.6 | 57.9 | 0.00 | 0.00 | 0.00 | 34 | 1010.9 |
| 20260504175228 | 7 | 248 | 37.0 | 56.3 | 0.00 | 0.00 | 0.00 | 34 | 1010.9 |
| 20260504174228 | 7 | 253 | 33.8 | 53.1 | 0.00 | 0.00 | 0.00 | 41 | 1010.9 |
| 20260504173230 | 7 | 257 | 37.0 | 57.9 | 0.00 | 0.00 | 0.00 | 38 | 1010.9 |
| 20260504172228 | 7 | 249 | 35.4 | 59.5 | 0.00 | 0.00 | 0.00 | 44 | 1010.6 |
| 20260504171229 | 7 | 250 | 38.6 | 61.2 | 0.00 | 0.00 | 0.00 | 44 | 1010.6 |
| 20260504170228 | 6 | 244 | 37.0 | 53.1 | 0.00 | 0.00 | 0.00 | 44 | 1010.6 |
| 20260504160228 | 5 | 249 | 35.4 | 59.5 | 0.00 | 0.00 | 0.00 | 50 | 1010.0 |
| 20260504150228 | 5 | 249 | 30.6 | 37.0 | 0.00 | 0.00 | 0.00 | 63 | 1010.1 |
| 20260504141229 | 4 | 253 | 24.1 | 33.8 | 0.00 | 0.00 | 0.00 | 67 | 1010.2 |
| 20260504140228 | 4 | 258 | 25.7 | 37.0 | 0.00 | 0.00 | 0.00 | 66 | 1010.2 |
| 20260504130228 | 3 | 263 | 24.1 | 35.4 | 0.00 | 0.00 | 0.00 | 69 | 1009.9 |
| 20260504120228 | 4 | 261 | 19.3 | 27.4 | 0.00 | 0.00 | 0.00 | 66 | 1009.7 |
| 20260504110228 | 5 | 258 | 24.1 | 38.6 | 0.00 | 0.00 | 0.00 | 60 | 1009.9 |
| 20260504100228 | 5 | 264 | 30.6 | 46.7 | 0.00 | 0.00 | 0.00 | 57 | 1009.9 |
| 20260504081228 | 5 | 263 | 30.6 | 45.1 | 0.00 | 0.00 | 0.00 | 60 | 1009.9 |
| 20260504080228 | 5 | 264 | 27.4 | 48.3 | 0.00 | 0.00 | 0.00 | 60 | 1009.9 |
| 20260504070228 | 6 | 263 | 32.2 | 49.9 | 0.00 | 0.00 | 0.00 | 56 | 1010.0 |
| 20260504045929 | 8 | 259 | 43.5 | 64.4 | 0.00 | 0.00 | 0.00 | 34 | 1010.6 |
| 20260504044929 | 8 | 265 | 41.8 | 61.2 | 0.00 | 0.00 | 0.00 | 31 | 1010.5 |
| 20260504043929 | 8 | 264 | 41.8 | 72.4 | 0.00 | 0.00 | 0.00 | 30 | 1010.4 |
| 20260504042929 | 8 | 262 | 45.1 | 69.2 | 0.00 | 0.00 | 0.00 | 30 | 1010.2 |
| 20260504041929 | 8 | 262 | 40.2 | 64.4 | 0.00 | 0.00 | 0.00 | 29 | 1010.5 |
| 20260504040929 | 8 | 261 | 46.7 | 69.2 | 0.00 | 0.00 | 0.00 | 29 | 1010.3 |
| 20260504035929 | 8 | 264 | 37.0 | 70.8 | 0.00 | 0.00 | 0.00 | 29 | 1010.2 |
| 20260504034929 | 9 | 258 | 38.6 | 64.4 | 0.00 | 0.00 | 0.00 | 29 | 1010.2 |
| 20260504033929 | 9 | 261 | 38.6 | 62.8 | 0.00 | 0.00 | 0.00 | 27 | 1010.1 |
| 20260504032929 | 9 | 260 | 33.8 | 59.5 | 0.00 | 0.00 | 0.00 | 26 | 1010.2 |
| 20260504031929 | 10 | 262 | 43.5 | 70.8 | 0.00 | 0.00 | 0.00 | 25 | 1010.1 |
| 20260504025928 | 10 | 256 | 37.0 | 62.8 | 0.00 | 0.00 | 0.00 | 21 | 1009.9 |
| 20260504023927 | 10 | 258 | 40.2 | 61.2 | 0.00 | 0.00 | 0.00 | 17 | 1009.7 |
| 20260504022927 | 11 | 262 | 37.0 | 61.2 | 0.00 | 0.00 | 0.00 | 16 | 1009.8 |
| 20260504021928 | 11 | 249 | 37.0 | 54.7 | 0.00 | 0.00 | 0.00 | 15 | 1009.7 |
| 20260504020927 | 11 | 261 | 30.6 | 48.3 | 0.00 | 0.00 | 0.00 | 13 | 1009.8 |
| 20260504015927 | 11 | 253 | 32.2 | 49.9 | 0.00 | 0.00 | 0.00 | 11 | 1009.8 |
| 20260504014927 | 12 | 250 | 35.4 | 48.3 | 0.00 | 0.00 | 0.00 | 10 | 1009.8 |
| 20260504014316 | 12 | 259 | 35.4 | 49.9 | 0.00 | 0.00 | 0.00 | 10 | 1009.9 |
| 20260504013927 | 12 | 259 | 35.4 | 49.9 | 0.00 | 0.00 | 0.00 | 10 | 1009.9 |
| 20260504013410 | 12 | 255 | 35.4 | 51.5 | 0.00 | 0.00 | 0.00 | 9 | 1009.9 |
| 20260504012927 | 12 | 255 | 35.4 | 51.5 | 0.00 | 0.00 | 0.00 | 9 | 1009.9 |
| 20260504012241 | 13 | 249 | 30.6 | 54.7 | 0.00 | 0.00 | 0.00 | 9 | 1010.1 |
| 20260504011927 | 13 | 249 | 30.6 | 54.7 | 0.00 | 0.00 | 0.00 | 9 | 1010.1 |
| 20260504010927 | 13 | 256 | 37.0 | 59.5 | 0.00 | 0.00 | 0.00 | 10 | 1010.1 |
| 20260504005927 | 13 | 245 | 38.6 | 53.1 | 0.00 | 0.00 | 0.00 | 13 | 1010.0 |
| 20260504005227 | 13 | 249 | 29.0 | 48.3 | 0.00 | 0.00 | 0.00 | 19 | 1010.2 |
| 20260504004927 | 13 | 249 | 29.0 | 48.3 | 0.00 | 0.00 | 0.00 | 19 | 1010.2 |
| 20260504004311 | 13 | 251 | 24.1 | 41.8 | 0.00 | 0.00 | 0.00 | 21 | 1010.3 |
| 20260504003927 | 13 | 251 | 24.1 | 41.8 | 0.00 | 0.00 | 0.00 | 21 | 1010.3 |
| 20260504003339 | 12 | 245 | 25.7 | 38.6 | 0.00 | 0.00 | 0.00 | 24 | 1010.4 |
| 20260504002927 | 12 | 245 | 25.7 | 38.6 | 0.00 | 0.00 | 0.00 | 24 | 1010.4 |
| 20260504001927 | 12 | 248 | 29.0 | 45.1 | 0.00 | 0.00 | 0.00 | 24 | 1010.5 |
| 20260504000927 | 12 | 246 | 25.7 | 41.8 | 0.00 | 0.00 | 0.00 | 24 | 1010.4 |
| 20260503235927 | 13 | 244 | 27.4 | 43.5 | 0.00 | 0.00 | 0.00 | 23 | 1010.5 |
| 20260503234927 | 14 | 236 | 25.7 | 49.9 | 0.00 | 0.00 | 0.00 | 22 | 1010.4 |
| 20260503234410 | 13 | 248 | 25.7 | 53.1 | 0.00 | 0.00 | 0.00 | 20 | 1010.5 |
| 20260503233927 | 13 | 248 | 25.7 | 53.1 | 0.00 | 0.00 | 0.00 | 20 | 1010.5 |
| 20260503232927 | 13 | 254 | 33.8 | 57.9 | 0.00 | 0.00 | 0.00 | 21 | 1010.7 |
| 20260503231927 | 13 | 258 | 46.7 | 59.5 | 0.00 | 0.00 | 0.00 | 19 | 1010.4 |
| 20260503230927 | 13 | 243 | 32.2 | 56.3 | 0.00 | 0.00 | 0.00 | 19 | 1010.5 |
| 20260503230259 | 13 | 253 | 41.8 | 64.4 | 0.00 | 0.00 | 0.00 | 17 | 1010.5 |
| 20260503225927 | 13 | 253 | 41.8 | 64.4 | 0.00 | 0.00 | 0.00 | 17 | 1010.5 |
| 20260503225550 | 13 | 253 | 40.2 | 54.7 | 0.00 | 0.00 | 0.00 | 17 | 1010.7 |
| 20260503224927 | 13 | 253 | 40.2 | 54.7 | 0.00 | 0.00 | 0.00 | 17 | 1010.7 |
| 20260503224616 | 13 | 248 | 32.2 | 49.9 | 0.00 | 0.00 | 0.00 | 18 | 1010.9 |
| 20260503223927 | 13 | 248 | 32.2 | 49.9 | 0.00 | 0.00 | 0.00 | 18 | 1010.9 |
| 20260503222928 | 13 | 249 | 30.6 | 43.5 | 0.00 | 0.00 | 0.00 | 18 | 1011.0 |
| 20260503222304 | 13 | 246 | 20.9 | 51.5 | 0.00 | 0.00 | 0.00 | 20 | 1011.1 |
| 20260503221927 | 13 | 246 | 20.9 | 51.5 | 0.00 | 0.00 | 0.00 | 20 | 1011.1 |
| 20260503221425 | 14 | 251 | 35.4 | 54.7 | 0.00 | 0.00 | 0.00 | 17 | 1011.1 |
| 20260503220927 | 14 | 251 | 35.4 | 54.7 | 0.00 | 0.00 | 0.00 | 17 | 1011.1 |
| 20260503220346 | 14 | 250 | 37.0 | 49.9 | 0.00 | 0.00 | 0.00 | 17 | 1011.4 |
| 20260503215927 | 14 | 250 | 37.0 | 49.9 | 0.00 | 0.00 | 0.00 | 17 | 1011.4 |
| 20260503215541 | 14 | 256 | 33.8 | 46.7 | 0.00 | 0.00 | 0.00 | 17 | 1011.3 |
| 20260503214927 | 14 | 256 | 33.8 | 46.7 | 0.00 | 0.00 | 0.00 | 17 | 1011.3 |
| 20260503213927 | 13 | 243 | 22.5 | 45.1 | 0.00 | 0.00 | 0.00 | 22 | 1011.6 |
| 20260503212927 | 13 | 251 | 30.6 | 54.7 | 0.00 | 0.00 | 0.00 | 23 | 1011.7 |
| 20260503211927 | 13 | 251 | 32.2 | 43.5 | 0.00 | 0.00 | 0.00 | 26 | 1011.8 |
| 20260503210927 | 12 | 236 | 11.3 | 33.8 | 0.00 | 0.00 | 0.00 | 32 | 1012.0 |
| 20260503205927 | 12 | 255 | 16.1 | 45.1 | 0.00 | 0.00 | 0.00 | 30 | 1012.1 |
| 20260503204928 | 13 | 248 | 27.4 | 40.2 | 0.00 | 0.00 | 0.00 | 28 | 1012.1 |
| 20260503203927 | 13 | 229 | 12.9 | 40.2 | 0.00 | 0.00 | 0.00 | 30 | 1012.2 |
| 20260503202927 | 13 | 251 | 25.7 | 38.6 | 0.00 | 0.00 | 0.00 | 29 | 1012.2 |